Location: Potomac
(46.8816°N, 113.5795°W)
Time: 12:06:19
(UTC+00:00)

AO-91 - Pass Details

Date: 07 July 2022
Orbit: 450 x 797 km, 97.7° (Epoch: 09 August)

Event Time Altitude Azimuth Distance (km) Brightness Sun altitude
Rises 07:36:23 0° 355° (N) 2,482 ? -20.5°
Reaches altitude 10° 07:39:08 10° 330° (NNW) 1,592 ? -20.5°
Maximum altitude 07:40:59 14° 296° (WNW) 1,355 ? -20.5°
Enters shadow 07:42:31 11° 268° (W) 1,524 ? -20.5°
